Weather History for Kokomo, IN

Change the Weather History Date:

Tuesday, February 12, 2013

  Actual Average (KGUS) Record (KGUS)
Temperature  
Mean Temperature 32 °F -  
Max Temperature 37 °F 35 °F 46 °F (2005)
Min Temperature 26 °F 23 °F -8 °F (2014)
Degree Days  
Heating Degree Days 34    
Moisture  
Dew Point 25 °F    
Average Humidity 79    
Maximum Humidity 93    
Minimum Humidity 69    
Precipitation  
Precipitation 0.00 in - - ()
Sea Level Pressure  
Sea Level Pressure 30.03 in    
Wind  
Wind Speed 13 mph (WNW)    
Max Wind Speed 22 mph    
Max Gust Speed 25 mph    
Visibility 10 miles    
Events      
Averages and records for this station are not official NWS values.
T = Trace of Precipitation, MM = Missing Value Source: NWS Daily Summary

Daily Weather History Graph

Daily Weather History Graph

Search for Another Location

Airport:

Trip Planner

Search our weather history database for the weather conditions in past years. The results will help you decide how hot, cold, wet, or windy it might be!

Date:

Astronomy

Feb. 12, 2013 Rise Set
Actual Time 6:41 AM CST 5:16 PM CST
Civil Twilight 6:13 AM CST 5:44 PM CST
Nautical Twilight 5:41 AM CST 6:16 PM CST
Astronomical Twilight 5:09 AM CST 6:48 PM CST
Moon 7:37 AM CST (2/12) 8:17 PM CST (2/12)
Length of Visible Light 11h 31m
Length of Day
10h 34m
Waxing Crescent, 7% of the Moon is Illuminated
Feb 12
Waxing Crescent
Feb 17
First Quarter
Feb 25
Full
Mar 4
Last Quarter
Mar 11
New

Hourly Weather History & Observations

Time (CST) Temp. Windchill Dew Point Humidity Pressure Visibility Wind Dir Wind Speed Gust Speed Precip Events Conditions
12:15 AM 30.2 °F 18.9 °F 24.8 °F 80% 30.03 in 10.0 mi WNW 16.1 mph - N/A   Overcast
12:35 AM 30.2 °F 17.1 °F 26.6 °F 86% 30.03 in 10.0 mi WNW 21.9 mph - N/A   Overcast
12:55 AM 30.2 °F 17.8 °F 24.8 °F 80% 30.04 in 10.0 mi WNW 19.6 mph 25.3 mph N/A   Overcast
1:15 AM 30.2 °F 19.3 °F 24.8 °F 80% 30.05 in 10.0 mi West 15.0 mph 21.9 mph N/A   Overcast
1:35 AM 30.2 °F 18.5 °F 24.8 °F 80% 30.05 in 10.0 mi West 17.3 mph 21.9 mph N/A   Overcast
1:55 AM 30.2 °F 18.1 °F 24.8 °F 80% 30.06 in 10.0 mi West 18.4 mph 23.0 mph N/A   Overcast
2:15 AM 30.2 °F 19.3 °F 24.8 °F 80% 30.06 in 10.0 mi West 15.0 mph - N/A   Overcast
2:35 AM 30.2 °F 19.3 °F 24.8 °F 80% 30.06 in 10.0 mi WNW 15.0 mph 19.6 mph N/A   Overcast
2:55 AM 30.2 °F 18.5 °F 23.0 °F 75% 30.06 in 10.0 mi WNW 17.3 mph - N/A   Overcast
3:15 AM 30.2 °F 18.1 °F 23.0 °F 75% 30.06 in 10.0 mi West 18.4 mph 23.0 mph N/A   Overcast
3:35 AM 30.2 °F 19.3 °F 23.0 °F 75% 30.06 in 10.0 mi WNW 15.0 mph 21.9 mph N/A   Overcast
3:55 AM 30.2 °F 19.8 °F 24.8 °F 80% 30.07 in 10.0 mi NW 13.8 mph 19.6 mph N/A   Overcast
4:15 AM 30.2 °F 18.9 °F 24.8 °F 80% 30.07 in 10.0 mi WNW 16.1 mph - N/A   Overcast
4:35 AM 30.2 °F 20.8 °F 23.0 °F 75% 30.07 in 10.0 mi WNW 11.5 mph - N/A   Overcast
4:55 AM 30.2 °F 20.2 °F 21.2 °F 69% 30.08 in 10.0 mi WNW 12.7 mph - N/A   Overcast
5:15 AM 30.2 °F 20.8 °F 23.0 °F 75% 30.08 in 10.0 mi WNW 11.5 mph - N/A   Overcast
5:35 AM 28.4 °F 18.0 °F 23.0 °F 80% 30.08 in 10.0 mi NW 12.7 mph - N/A   Overcast
5:55 AM 28.4 °F 17.5 °F 21.2 °F 74% 30.08 in 10.0 mi WNW 13.8 mph - N/A   Overcast
6:15 AM 28.4 °F 18.5 °F 21.2 °F 74% 30.09 in 10.0 mi WNW 11.5 mph - N/A   Overcast
6:35 AM 28.4 °F 18.0 °F 23.0 °F 80% 30.09 in 10.0 mi West 12.7 mph - N/A   Overcast
6:55 AM 28.4 °F 18.5 °F 23.0 °F 80% 30.09 in 10.0 mi WNW 11.5 mph - N/A   Overcast
7:15 AM 28.4 °F 18.0 °F 21.2 °F 74% 30.09 in 10.0 mi WNW 12.7 mph - N/A   Overcast
7:35 AM 28.4 °F 18.5 °F 23.0 °F 80% 30.09 in 10.0 mi West 11.5 mph - N/A   Overcast
7:55 AM 28.4 °F 19.1 °F 24.8 °F 86% 30.10 in 10.0 mi West 10.4 mph - N/A   Overcast
8:15 AM 30.2 °F 21.3 °F 21.2 °F 69% 30.10 in 10.0 mi West 10.4 mph - N/A   Overcast
8:35 AM 30.2 °F 21.9 °F 24.8 °F 80% 30.11 in 10.0 mi West 9.2 mph - N/A   Overcast
8:55 AM 30.2 °F 21.3 °F 24.8 °F 80% 30.10 in 10.0 mi WNW 10.4 mph - N/A   Overcast
9:15 AM 30.2 °F 21.3 °F 24.8 °F 80% 30.09 in 10.0 mi West 10.4 mph - N/A   Overcast
9:35 AM 32.0 °F 24.8 °F 24.8 °F 75% 30.09 in 10.0 mi West 8.1 mph - N/A   Overcast
9:55 AM 32.0 °F 26.4 °F 26.6 °F 80% 30.09 in 10.0 mi West 5.8 mph - N/A   Scattered Clouds
10:15 AM 33.8 °F 27.0 °F 24.8 °F 70% 30.09 in 10.0 mi WNW 8.1 mph - N/A   Partly Cloudy
10:35 AM 33.8 °F 27.0 °F 26.6 °F 75% 30.09 in 10.0 mi WSW 8.1 mph - N/A   Partly Cloudy
10:55 AM 33.8 °F 26.4 °F 24.8 °F 70% 30.07 in 10.0 mi West 9.2 mph - N/A   Scattered Clouds
11:15 AM 33.8 °F 26.4 °F 26.6 °F 75% 30.07 in 10.0 mi West 9.2 mph - N/A   Scattered Clouds
11:35 AM 33.8 °F 27.0 °F 26.6 °F 75% 30.05 in 10.0 mi WNW 8.1 mph - N/A   Scattered Clouds
11:55 AM 35.6 °F 29.2 °F 26.6 °F 70% 30.03 in 10.0 mi WNW 8.1 mph - N/A   Partly Cloudy
12:15 PM 35.6 °F 29.2 °F 26.6 °F 70% 30.02 in 10.0 mi WNW 8.1 mph - N/A   Partly Cloudy
12:35 PM 35.6 °F 27.1 °F 28.4 °F 75% 30.01 in 10.0 mi WNW 12.7 mph - N/A   Clear
12:55 PM 35.6 °F 27.5 °F 28.4 °F 75% 30.01 in 10.0 mi West 11.5 mph 16.1 mph N/A   Clear
1:15 PM 35.6 °F 27.1 °F 28.4 °F 75% 30.00 in 10.0 mi West 12.7 mph - N/A   Clear
1:35 PM 37.4 °F 29.3 °F 30.2 °F 75% 30.01 in 10.0 mi WNW 12.7 mph 17.3 mph N/A   Partly Cloudy
1:55 PM 37.4 °F 29.3 °F 28.4 °F 70% 30.02 in 10.0 mi West 12.7 mph - N/A   Scattered Clouds
2:15 PM 37.4 °F 28.9 °F 28.4 °F 70% 30.02 in 10.0 mi West 13.8 mph - N/A   Mostly Cloudy
2:35 PM 37.4 °F 28.9 °F 30.2 °F 75% 30.02 in 10.0 mi West 13.8 mph - N/A   Mostly Cloudy
2:55 PM 37.4 °F 29.3 °F 30.2 °F 75% 30.02 in 10.0 mi West 12.7 mph - N/A   Mostly Cloudy
3:15 PM 37.4 °F 28.9 °F 28.4 °F 70% 30.02 in 10.0 mi WNW 13.8 mph - N/A   Overcast
3:35 PM 35.6 °F 27.1 °F 28.4 °F 75% 30.01 in 10.0 mi WNW 12.7 mph - N/A   Overcast
3:55 PM 35.6 °F 27.1 °F 28.4 °F 75% 30.01 in 10.0 mi WNW 12.7 mph - N/A   Mostly Cloudy
4:15 PM 33.8 °F 25.3 °F 26.6 °F 75% 30.00 in 10.0 mi NW 11.5 mph - N/A   Partly Cloudy
4:35 PM 33.8 °F 25.3 °F 26.6 °F 75% 30.00 in 10.0 mi NW 11.5 mph - N/A   Partly Cloudy
4:55 PM 32.0 °F 24.2 °F 24.8 °F 75% 29.99 in 10.0 mi WNW 9.2 mph - N/A   Partly Cloudy
5:15 PM 30.2 °F 21.9 °F 26.6 °F 86% 29.99 in 10.0 mi WNW 9.2 mph - N/A   Clear
5:35 PM 30.2 °F 22.6 °F 26.6 °F 86% 29.98 in 10.0 mi NW 8.1 mph - N/A   Clear
5:55 PM 30.2 °F 24.3 °F 24.8 °F 80% 29.99 in 10.0 mi NW 5.8 mph - N/A   Clear
6:15 PM 30.2 °F 22.6 °F 26.6 °F 86% 29.98 in 10.0 mi NW 8.1 mph - N/A   Clear
6:35 PM 30.2 °F 21.3 °F 26.6 °F 86% 29.98 in 10.0 mi WNW 10.4 mph - N/A   Scattered Clouds
6:55 PM 30.2 °F 21.3 °F 26.6 °F 86% 29.98 in 9.0 mi NW 10.4 mph - N/A   Overcast
7:15 PM 30.2 °F 21.3 °F 26.6 °F 86% 29.98 in 10.0 mi WNW 10.4 mph - N/A   Overcast
7:35 PM 30.2 °F 21.9 °F 24.8 °F 80% 29.97 in 10.0 mi WNW 9.2 mph - N/A   Overcast
7:55 PM 30.2 °F 21.3 °F 26.6 °F 86% 29.96 in 10.0 mi NW 10.4 mph - N/A   Overcast
8:15 PM 28.4 °F 23.3 °F 23.0 °F 80% 29.96 in 8.0 mi NW 4.6 mph - N/A   Scattered Clouds
8:35 PM 28.4 °F 22.2 °F 24.8 °F 86% 29.95 in 8.0 mi NW 5.8 mph - N/A   Scattered Clouds
8:55 PM 28.4 °F 21.2 °F 24.8 °F 86% 29.96 in 8.0 mi WNW 6.9 mph - N/A   Overcast
9:15 PM 28.4 °F 20.4 °F 26.6 °F 93% 29.95 in 10.0 mi NW 8.1 mph - N/A   Overcast
9:35 PM 28.4 °F 21.2 °F 23.0 °F 80% 29.95 in 10.0 mi NNW 6.9 mph - N/A   Overcast
9:55 PM 28.4 °F 19.7 °F 24.8 °F 86% 29.95 in 10.0 mi NW 9.2 mph - N/A   Overcast
10:15 PM 28.4 °F 23.3 °F 23.0 °F 80% 29.94 in 10.0 mi NW 4.6 mph - N/A   Overcast
10:35 PM 28.4 °F 22.2 °F 23.0 °F 80% 29.94 in 10.0 mi WNW 5.8 mph - N/A   Mostly Cloudy
10:55 PM 26.6 °F 22.6 °F 23.0 °F 86% 29.93 in 10.0 mi WNW 3.5 mph - N/A   Partly Cloudy
11:15 PM 26.6 °F - 24.8 °F 93% 29.93 in 10.0 mi Calm Calm - N/A   Clear
11:35 PM 26.6 °F - 21.2 °F 80% 29.93 in 10.0 mi Calm Calm - N/A   Clear
11:55 PM 26.6 °F - 24.8 °F 93% 29.93 in 10.0 mi Calm Calm - N/A   Scattered Clouds